Showing default

COSMOS 1066, 11165

Orbit data source: Space-Track

COSMOS 1066, 11165 is a Commonwealth of Independent States-origin payload satellite in LEO that was launched on Sat, 23 Dec 1978 UTC via a VOSTOK 8A92M launch vehicle from the Plesetsk Missile And Space Complex (PKMTR). Payload-class satellites include a variety of spacecraft equipped with specific instruments for various scientific and technological missions. These include communications satellites like Starlink; space stations such as the ISS; scientific satellites like the Hubble; Earth observation satellites from companies like Planet Labs, Umbra, and HawkEye 360; GPS; miniature CubeSats for education and research; and military/defense satellites.

Loading next visibility...
Identifier
11165, 1978-121A
Orbit
LEO
Country
Flag of CISCIS
Related business
Manufacturer
VNIEM?
Mission
Spacecraft
Bus & Motor
ASTROFIZIKA, Unknown motor
Mass
~1,200 kg wet, ~1,200 kg dry
Launch date (UTC)
1978-12-23 (47 years ago)
Launch vehicle
VOSTOK 8A92M
Launch site
Plesetsk Missile And Space Complex (PKMTR)
Object type
Payload
Rocket body
Debris
Shape & HBR
Unknown
Radar Cross Section
Large (>1 m²)

Expand to show TLE details & history
Last TLE update: 2 days ago

TLE from 2 days ago
0 COSMOS 1066
1 11165U 78121A   26171.29709863 -.00000030  00000-0 -23228-4 0  9990
2 11165  81.2373 252.7088 0050449  87.4269 273.2676 14.12106974961767
Epoch: 2026-06-20T07:07Z
TLE epoch observation values (Epoch: 2026-06-20T07:07:49.321Z)
Latitude
-0.00011°
Longitude
-122.76047°
Altitude
853.177 km
Speed
7.427 km/s
True Right ascension
16h 50m 50s
True Declination
0° 00' 00"
Sunlit
Object was in full shadow at epoch
Visualization orbit readout
Latitude
Unknown
Longitude
Unknown
Altitude
Unknown
Speed
Unknown
Apparent Right ascension
Unknown
Apparent Declination
Unknown
Sunlit
N/A
Visualization observer readout
Local Sidereal Time
23:09:54
Azimuth
Unknown
Elevation
Unknown
Doppler factor
Unknown
Orbital elements
Apogee altitude
885.804 km
Perigee altitude
812.88 km
Semi-major axis
7,227.479 km
Eccentricity
0.00504
Inclination
81.2373°
RAAN
252.7088°
Arg. of periapsis
87.4269°
True anomaly
272.69024°
Mean anomaly
273.2676°
Eccentric anomaly
272.97894°
Mean motion
3.53234 °/min
Orbital period
101.92 mins
BSTAR
-0.000023228
Loading maneuver chart data...
Computing Atmospheric mass density...
Loading historical data...
Loading historical data...
Loading historical data...
Loading historical data...
Loading historical data...
Loading historical data...
Loading historical data...
Other satellites on launch #121 in the year 1978 (1978-12-23 UTC)

Documentation

Showing up to 5 results
|